Location: Antioch Baptist Church
(32.6696°N, 85.7327°W)
Time: 12:13:28
(UTC+00:00)

Cosmos 968 Rocket - Pass Details

Date: 14 July 2020
Orbit: 741 x 770 km, 74.0° (Epoch: 08 August)

Event Time Altitude Azimuth Distance (km) Brightness Sun altitude
Exits shadow 09:33:04 - 179° (S) 2,822 6.1 -13.8°
Reaches altitude 10° 09:34:33 10° 175° (S) 2,261 5.6 -13.6°
Maximum altitude 09:39:27 47° 102° (ESE) 985 4.4 -12.7°
Drops below altitude 10° 09:44:20 10° 30° (NNE) 2,259 7.1 -11.9°
Sets 09:46:45 0° 24° (NNE) 3,184 7.8 -11.5°
